Location: Helsinki
(60.1699°N, 24.9384°E)
Time: 20:55:48
(UTC+03:00)

N. Korean satellite - Visible Passes

Search period start: 28 September 2020 00:00
Search period end: 08 October 2020 00:00
Orbit: 455 x 503 km, 97.2° (Epoch: 27 September)

Date Brightness Start Highest point End Pass type
(mag) Time Alt. Az. Time Alt. Az. Time Alt. Az.
29 Sep 8.8 06:32:02 10° NNE 06:35:23 32° E 06:38:39 10° SSE visible
30 Sep 9.7 06:06:22 10° NE 06:09:08 20° E 06:11:50 10° SE visible
01 Oct 10.1 05:41:11 10° ENE 05:42:46 12° E 05:44:20 10° ESE visible
01 Oct 10.8 19:34:08 10° W 19:35:07 11° W 19:36:06 10° WNW visible
03 Oct 9.2 06:21:21 10° NE 06:24:28 26° E 06:27:31 10° SSE visible
04 Oct 9.8 05:55:49 10° NE 05:58:09 16° E 06:00:28 10° SE visible
05 Oct 10.3 19:22:17 10° WSW 19:24:07 13° W 19:25:57 10° NW visible
06 Oct 8.5 06:36:24 10° NNE 06:39:45 35° E 06:43:01 10° SSE visible
07 Oct 9.5 06:10:39 10° NE 06:13:28 21° E 06:16:15 10° SE visible
